Simultaneous Nadir Overpasses (SNOs) Predictions

Prediction of SNOs over PacNW region [( 10.00, 139.50) to ( 22.70, 165.60)] between AQUA and NPP Satellites:

Table of predicted SNOs over PacNW region for the next 30.0 days since TLE Epoch: 2/11/2023
Index Date (AQUA) Time (AQUA) AQUA Lat,Lon Date (NPP) Time (NPP) NPP Lat,Lon Distance(km) Time Diff (sec)
1 02/18/2023 15:14:14 19.75, 160.66 02/18/2023 15:13:26 20.51, 156.65 427.29 48
2 03/01/2023 02:39:20 22.70, 163.03 03/01/2023 02:37:52 21.87, 158.76 448.92 88
3 03/01/2023 04:15:43 13.80, 140.37 03/01/2023 04:16:46 12.72, 135.58 532.00 63
4 03/03/2023 16:16:42 10.05, 143.65 03/03/2023 16:13:13 10.66, 140.11 392.93 209
